Regional Weather Roundup
Issued by NWS

Home | Current Version | Previous Version | Text Only | Print | Product List | Glossary On
Versions: 1 2 3 4 5 6 7 8 9 10 11 12 13 14 15 16 17 18 19 20 21 22 23 24 25 26 27 28 29 30 31 32 33 34 35 36 37 38 39 40 41 42 43 44 45 46 47 48 49 50
000
ASUS43 KMKX 261259
RWRWI

WISCONSIN REGIONAL WEATHER ROUNDUP
NATIONAL WEATHER SERVICE MILWAUKEE/SULLIVAN WI
800 AM CDT THU MAR 26 2015

NOTE: "FAIR" INDICATES FEW OR NO CLOUDS BELOW 12,000 FEET WITH NO
SIGNIFICANT WEATHER AND/OR OBSTRUCTIONS TO VISIBILITY.

WIZ001-002-006>008-014>016-023>028-261400-
NORTHWEST WISCONSIN

CITY           SKY/WX    TMP DP  RH WIND       PRES   REMARKS
SUPERIOR ARPT  CLOUDY    25  14  65 N16       30.10R WCI  12
ASHLAND        CLOUDY    23  15  71 NW16      30.06R WCI  10
HAYWARD        CLOUDY    24  14  65 N12G21    30.02R WCI  13
SIREN          MOCLDY    28  15  58 N14G25    30.05R WCI  17
CUMBERLAND     CLOUDY    28  18  64 NW17      30.01R WCI  16
RICE LAKE      CLOUDY    29  18  63 NW12G18   30.03R WCI  20
CHETEK         CLOUDY    29  18  62 NW14G22   30.01R WCI  19
LADYSMITH      CLOUDY    29  20  71 NW21G28   30.00R WCI  15
EAU CLAIRE     NOT AVBL
MENOMONIE      CLOUDY    31  19  62 NW12G17   30.03R WCI  22
NEW RICHMOND   CLOUDY    29  20  68 NW10G17   30.05R WCI  20
OSCEOLA        CLOUDY    30  20  65 NW12G20   30.09R WCI  20
$$

WIZ003>005-009-010-017-018-261400-
NORTH CENTRAL WISCONSIN

CITY           SKY/WX    TMP DP  RH WIND       PRES   REMARKS
MANITOWISH WTR FLURRIES  22  17  81 N12G18    29.93R WCI  10
ARBOR VITAE    FLURRIES  24  19  80 N17G23    29.93R WCI  11
WOODRUFF       FLURRIES  24  19  80 N17G23    29.93R WCI  11
RHINELANDER    CLOUDY    24  17  74 NW12G20   29.92R WCI  13
EAGLE RIVER    LGT SNOW  24  17  75 NW13G18   29.91R WCI  12
LAND O LAKES   LGT SNOW  24  19  81 NW12      29.91R WCI  13
PHILLIPS       CLOUDY    24  16  69 NW14G22   29.95R WCI  12
TOMAHAWK       CLOUDY    26  17  67 NW12G21   29.94R WCI  16
MEDFORD        FLURRIES  28  20  72 NW9       29.94R WCI  19
MERRILL        CLOUDY    29  20  69 N13G22    29.93R WCI  19
$$

WIZ029-030-035-036-043>047-261400-
CENTRAL WISCONSIN

CITY           SKY/WX    TMP DP  RH WIND       PRES   REMARKS
WAUSAU         CLOUDY    29  20  69 NW12      29.91R WCI  19
MOSINEE        CLOUDY    28  21  74 NW16G23   29.94R WCI  17
MARSHFIELD     CLOUDY    30  20  66 NW20      29.95R WCI  17
STEVENS POINT  CLOUDY    30  20  66 NW15G23   29.93S WCI  19
WAUPACA        CLOUDY    36  21  55 NW9       29.93S WCI  29
WAUTOMA        NOT AVBL
WISC RAPIDS    CLOUDY    32  20  61 NW14G24   29.96R WCI  22
CAMP DOUGLAS   NOT AVBL
$$

WIZ011>013-019>022-031-037>040-048>050-261400-
NORTHEAST WISCONSIN

CITY           SKY/WX    TMP DP  RH WIND       PRES   REMARKS
ANTIGO         CLOUDY    28  22  78 NW13G18   29.89R WCI  17
SHAWANO        CLOUDY    35  23  62 NW10      29.91R WCI  27
OCONTO         CLOUDY    34  21  60 NW14G20   29.89R WCI  24
STURGEON BAY   CLOUDY    34  21  60 NW12      29.90R WCI  25
GREEN BAY      CLOUDY    35  24  64 W10       29.91R WCI  27
MANITOWOC      NOT AVBL
APPLETON       CLOUDY    34  21  60 W12       29.92R WCI  25
CLINTONVILLE   CLOUDY    34  23  64 NW12      29.91R WCI  25
OSHKOSH        CLOUDY    34  21  59 NW10      29.93R WCI  26
$$

WIZ032>034-041-042-053>061-261400-
SOUTHWEST WISCONSIN

CITY           SKY/WX    TMP DP  RH WIND       PRES   REMARKS
LA CROSSE      CLOUDY    34  23  64 NW13      30.02R WCI  25
SPARTA         CLOUDY    33  20  60 NW9       30.01R WCI  25
VIROQUA        CLOUDY    29  23  77 NW10      29.98S WCI  20
BOSCOBEL       CLOUDY    31  21  66 W7        30.04R WCI  24
PRAIRIE DU CHI SUNNY     29  20  67 NW14G21   30.04R WCI  19
PLATTEVILLE    SUNNY     26  22  84 SW7       30.01R WCI  19
$$

WIZ056-057-062-063-064-067-068-261400-
SOUTH CENTRAL WISCONSIN

CITY           SKY/WX    TMP DP  RH WIND       PRES   REMARKS
REEDSBURG      CLOUDY    32  21  63 NW10      29.97R WCI  24
BARABOO/DELLS  CLOUDY    32  20  61 NW13G18   29.96S WCI  23
LONE ROCK      NOT AVBL
MINERAL POINT  SUNNY     28  23  80 NW5       29.98R WCI  23
MADISON        PTSUNNY   33  22  63 W6        29.97R WCI  28
MIDDLETON      CLOUDY    33  23  65 NW7       29.98R WCI  27
WATERTOWN      CLOUDY    34  23  65 W6        29.95S WCI  29
MONROE         SUNNY     27  23  86 W10       29.98R WCI  17
JANESVILLE     NOT AVBL
$$

WIZ051-052-058>065-066-070>072-261400-
SOUTHEAST WISCONSIN

CITY           SKY/WX    TMP DP  RH WIND       PRES   REMARKS
MILWAUKEE      CLOUDY    36  21  54 NW7       29.96R WCI  30
WAUKESHA       CLOUDY    34  23  64 NW12      29.95S WCI  25
MILWAUKEE/TIMM CLOUDY    36  19  51 NW13      29.95S WCI  27
RACINE         CLOUDY    36  22  56 NW7       29.97S WCI  30
BURLINGTON     CLOUDY    32  22  67 NW7       29.96S WCI  26
KENOSHA        CLOUDY    35  24  64 NW7       29.96R WCI  29
FOND DU LAC    CLOUDY    34  22  61 W8        29.94R WCI  27
SHEBOYGAN      CLOUDY    35  23  61 W10       29.93R WCI  27
WEST BEND      CLOUDY    34  21  60 NW8       29.94R WCI  27
JUNEAU         CLOUDY    33  25  73 CALM      29.96R
$$

LSZ147-162-261400-
LAKE SUPERIOR

STATION/POSITION TIME  TEMP    WIND        PRES    WAVE
                       AIR SEA DIR/SP/G            HT/PER
                 (UTC) (F)     (DEG/KT/KT) (MB)    (FT/S)
DEVILS ISLAND    1200   22     350/ 27/ 29 1018.7R
PORT WING        1240   24     340/ 19/ 24 1019.0R
SAXON HARBOR     1200   26     330/ 20/ 25 1016.6
$$

LMZ867-665-643>646-261400-
LAKE MICHIGAN

STATION/POSITION TIME  TEMP    WIND        PRES    WAVE
                       AIR SEA DIR/SP/G            HT/PER
                 (UTC) (F)     (DEG/KT/KT) (MB)    (FT/S)
NORTHPORT PIER   1202   34     290/  8/ 14 1010.8R
SISTER BAY       1247   33     340/  9/ 14   N/A
KEWAUNEE LAKESHO 1200   35     280/  7/ 11 1011.1R
SHEBOYGAN LAKESH 1200   36     290/  8/ 11 1014.0R
PORT WASHINGTON  1240   36     290/  7/ 14 1014.9R
MILWAUKEE LAKESH 1200   36     310/ 11/ 14   N/A
KENOSHA   LAKESH 1200   36     310/ 11/ 17 1014.6R
$$

TC  - TEMPERATURE IN CELSIUS
VSB - VISIBILITY IN STATUTE MILES
WCI - WIND CHILL INDEX
HX  - HEAT INDEX




USA.gov is the U.S. government's official web portal to all federal, state and local government web resources and services.